Weather in Tit-Ary

Russia / Sakha (Yakutia) Republic     61°13′28″N   127°43′46″E
temp.,
°C
wind,
m/s
gust,
m/s
humid.,
%
clouds,
%
prec.,
mm/h
press.,
hPa
HPBL,
m
5 march, fri
fri500:00−30wnw3995100 0.1 1027864
03:00−32wnw31193100 0.1 1028606
06:00−32wnw31194100 0.0 1030508
09:00−31wnw51192100 0.0 1031604
12:00−28w4788100 0.0 1031657
15:00−26w4887100 0.0 1030710
18:00−28w2394100 0.0 103181
21:00−31w239785 0.0 103347
6 march, sat
sat600:00−32w239730 0.0 103271
03:00−33wsw249815 0.0 103279
06:00−34wsw229949 0.0 103219
09:00−31wsw259654 0.0 1030155
12:00−23w248537 0.0 1027377
15:00−20w137837 0.0 1024573
18:00−25ene118928 0.0 102320
21:00−28ese129214 0.0 102319
7 march, sun
sun700:00−29ese11934 0.0 102219
03:00−29ese129421 0.0 102119
06:00−29ese229379 0.0 102021
09:00−26e129186 0.0 101982
12:00−20ese2390100 0.0 1016275
15:00−16e2394100 0.1 1014199
18:00−18ene249799 0.2 1012121
21:00−19e229998 0.5 101146
8 march, mon
mon800:00−19e129891 0.1 100926
03:00−18e249896 0.1 1007106
06:00−18e3598100 0.3 1005143
09:00−18e3597100 0.6 1004154
12:00−15ene2394100 0.1 1003204
15:00−14ene359498 0.3 1002237
18:00−17ene259795 0.1 1003168
21:00−18ene249797 0.1 1005141
9 march, tue
tue900:00−21ene129997 0.1 100721
03:00−22ne119997 0.1 100920
06:00−20w1299100 0.1 101223
09:00−17w2694100 0.3 1014289
12:00−13w3689100 0.1 1015515
15:00−9w3685100 0.1 1014788
18:00−11wsw2394100 0.1 101495
21:00−15ssw229577 0.1 101523